AAL1185 MMUN-KJFK

Flight info

Callsign AAL1185
Flight time N/A
Altitude 35000
Route ROTGI2A ROTGI UM219 MYDIA M219 KNOST Q109 DFENC DCT SAWED Q108 SIE CAMRN5
Aircraft B738/M-SDE2E3FGHIRWXY/LB1

Departure

Time 2026-04-28 22:35
Airport Cancún International Airport (MMUN)

Arrival

Time N/A
Airport John F. Kennedy International Airport (KJFK)
Time Latitude Longitude Altitude Speed Heading
2026-04-28 22:15 21.03680 -86.87105 27 ft 0 kts 32°
2026-04-28 22:25 21.03680 -86.87106 27 ft 1 kts 32°
2026-04-28 22:25 21.03666 -86.87115 27 ft 2 kts 32°
2026-04-28 22:26 21.03652 -86.87124 27 ft 2 kts 32°
2026-04-28 22:26 21.03639 -86.87133 27 ft 2 kts 32°
2026-04-28 22:26 21.03625 -86.87143 27 ft 2 kts 32°
2026-04-28 22:26 21.03611 -86.87152 27 ft 2 kts 32°
2026-04-28 22:27 21.03610 -86.87153 27 ft 0 kts 32°
2026-04-28 22:27 21.03614 -86.87154 27 ft 1 kts 347°
2026-04-28 22:27 21.03618 -86.87177 27 ft 6 kts 279°
2026-04-28 22:28 21.03621 -86.87192 27 ft 0 kts 289°
2026-04-28 22:28 21.03623 -86.87193 27 ft 0 kts 300°
2026-04-28 22:29 21.03652 -86.87242 27 ft 14 kts 303°
2026-04-28 22:29 21.03709 -86.87331 27 ft 14 kts 304°
2026-04-28 22:29 21.03761 -86.87416 27 ft 14 kts 303°
2026-04-28 22:29 21.03813 -86.87498 27 ft 13 kts 304°
2026-04-28 22:30 21.03823 -86.87589 28 ft 13 kts 259°
2026-04-28 22:30 21.03836 -86.87677 28 ft 12 kts 302°
2026-04-28 22:30 21.03885 -86.87753 28 ft 13 kts 305°
2026-04-28 22:30 21.03944 -86.87845 27 ft 16 kts 304°
2026-04-28 22:31 21.04005 -86.87942 27 ft 15 kts 304°
2026-04-28 22:31 21.04065 -86.88036 27 ft 15 kts 304°
2026-04-28 22:31 21.04121 -86.88125 27 ft 14 kts 304°
2026-04-28 22:31 21.04174 -86.88210 27 ft 14 kts 303°
2026-04-28 22:32 21.04226 -86.88292 28 ft 13 kts 303°
2026-04-28 22:32 21.04280 -86.88379 28 ft 16 kts 303°
2026-04-28 22:32 21.04340 -86.88476 28 ft 15 kts 303°
2026-04-28 22:32 21.04398 -86.88570 28 ft 15 kts 303°
2026-04-28 22:33 21.04454 -86.88660 28 ft 14 kts 303°
2026-04-28 22:33 21.04508 -86.88746 28 ft 14 kts 304°
2026-04-28 22:33 21.04560 -86.88828 28 ft 13 kts 302°
2026-04-28 22:33 21.04609 -86.88908 28 ft 13 kts 303°
2026-04-28 22:34 21.04637 -86.88991 28 ft 12 kts 254°
2026-04-28 22:34 21.04576 -86.89054 26 ft 12 kts 216°
2026-04-28 22:34 21.04504 -86.89052 26 ft 12 kts 130°
2026-04-28 22:34 21.04464 -86.88977 27 ft 12 kts 123°
2026-04-28 22:35 21.04376 -86.88834 27 ft 46 kts 123°
2026-04-28 22:35 21.04068 -86.88348 28 ft 111 kts 124°
2026-04-28 22:35 21.03527 -86.87496 38 ft 163 kts 124°
2026-04-28 22:35 21.02884 -86.86496 773 ft 155 kts 124°
2026-04-28 22:36 21.02285 -86.85507 1365 ft 168 kts 123°
2026-04-28 22:36 21.01610 -86.84373 1722 ft 195 kts 118°
2026-04-28 22:36 21.01273 -86.82885 1912 ft 220 kts 90°
2026-04-28 22:36 21.01545 -86.81233 2277 ft 234 kts 76°
2026-04-28 22:37 21.02060 -86.79498 2588 ft 252 kts 74°
2026-04-28 22:37 21.02611 -86.77710 3350 ft 253 kts 73°
2026-04-28 22:37 21.03153 -86.75912 4145 ft 255 kts 74°
2026-04-28 22:37 21.03696 -86.74081 4733 ft 259 kts 73°
2026-04-28 22:38 21.04280 -86.72250 5007 ft 264 kts 65°
2026-04-28 22:38 21.05315 -86.70613 5078 ft 269 kts 49°
2026-04-28 22:38 21.06760 -86.69361 5593 ft 273 kts 36°
2026-04-28 22:38 21.08352 -86.68248 6410 ft 273 kts 34°
2026-04-28 22:39 21.09993 -86.67199 6795 ft 276 kts 24°
2026-04-28 22:39 21.11870 -86.66768 7036 ft 281 kts
2026-04-28 22:39 21.13839 -86.66764 7026 ft 284 kts
2026-04-28 22:39 21.15808 -86.66811 7023 ft 282 kts
2026-04-28 22:40 21.17763 -86.66850 7026 ft 280 kts
2026-04-28 22:40 21.19710 -86.66873 7029 ft 279 kts
2026-04-28 22:40 21.21652 -86.66887 7035 ft 279 kts
2026-04-28 22:40 21.23570 -86.66897 7035 ft 280 kts
2026-04-28 22:41 21.25521 -86.66906 7082 ft 282 kts
2026-04-28 22:41 21.27502 -86.66916 7598 ft 285 kts
2026-04-28 22:41 21.29486 -86.66926 8392 ft 284 kts
2026-04-28 22:41 21.31465 -86.66936 9149 ft 285 kts
2026-04-28 22:42 21.33462 -86.66946 9834 ft 289 kts
2026-04-28 22:42 21.35488 -86.66956 10394 ft 296 kts
2026-04-28 22:42 21.37623 -86.66964 10551 ft 318 kts
2026-04-28 22:42 21.39870 -86.66973 10706 ft 337 kts
2026-04-28 22:43 21.42279 -86.66984 10834 ft 355 kts
2026-04-28 22:43 21.44811 -86.66996 10963 ft 372 kts
2026-04-28 22:43 21.47450 -86.67010 11143 ft 385 kts
2026-04-28 22:43 21.50142 -86.67025 11567 ft 388 kts
2026-04-28 22:44 21.52846 -86.67040 12117 ft 389 kts
2026-04-28 22:44 21.55556 -86.67055 12639 ft 390 kts
2026-04-28 22:44 21.58159 -86.67069 13103 ft 392 kts
2026-04-28 22:44 21.60887 -86.67083 13572 ft 394 kts
2026-04-28 22:45 21.63595 -86.67096 14004 ft 396 kts
2026-04-28 22:45 21.66354 -86.67110 14422 ft 397 kts
2026-04-28 22:45 21.69118 -86.67124 14841 ft 398 kts
2026-04-28 22:45 21.71892 -86.67138 15245 ft 399 kts
2026-04-28 22:46 21.74677 -86.67152 15643 ft 401 kts
2026-04-28 22:46 21.77471 -86.67166 16048 ft 402 kts
2026-04-28 22:46 21.80278 -86.67180 16442 ft 404 kts
2026-04-28 22:46 21.83090 -86.67194 16821 ft 405 kts
2026-04-28 22:47 21.85901 -86.66991 17174 ft 406 kts 10°
2026-04-28 22:47 21.88673 -86.66378 17549 ft 407 kts 13°
2026-04-28 22:47 21.91439 -86.65693 17912 ft 409 kts 13°
2026-04-28 22:47 21.94061 -86.65036 18250 ft 410 kts 13°
2026-04-28 22:48 21.96849 -86.64350 18558 ft 412 kts 13°
2026-04-28 22:48 21.99646 -86.63678 18877 ft 413 kts 12°
2026-04-28 22:48 22.02456 -86.63016 19200 ft 413 kts 12°
2026-04-28 22:48 22.05269 -86.62361 19518 ft 414 kts 12°
2026-04-28 22:49 22.08093 -86.61707 19822 ft 416 kts 12°
2026-04-28 22:49 22.10924 -86.61053 20114 ft 417 kts 12°
2026-04-28 22:49 22.13769 -86.60396 20395 ft 419 kts 12°
2026-04-28 22:49 22.16625 -86.59736 20676 ft 421 kts 12°
2026-04-28 22:50 22.19455 -86.59081 20921 ft 423 kts 12°
2026-04-28 22:50 22.22339 -86.58413 21197 ft 424 kts 12°
2026-04-28 22:50 22.25227 -86.57743 21453 ft 426 kts 12°
2026-04-28 22:50 22.28132 -86.57070 21723 ft 427 kts 12°
2026-04-28 22:51 22.31045 -86.56394 21957 ft 430 kts 11°
2026-04-28 22:51 22.33974 -86.55714 22219 ft 431 kts 11°
2026-04-28 22:51 22.36907 -86.55033 22495 ft 432 kts 11°
2026-04-28 22:51 22.39848 -86.54350 22776 ft 432 kts 11°
2026-04-28 22:52 22.42793 -86.53667 23011 ft 434 kts 11°
2026-04-28 22:52 22.45753 -86.52980 23219 ft 436 kts 11°
2026-04-28 22:52 22.48682 -86.52300 23481 ft 437 kts 11°
2026-04-28 22:52 22.51657 -86.51609 23698 ft 438 kts 11°
2026-04-28 22:53 22.54643 -86.50916 23859 ft 440 kts 11°
2026-04-28 22:53 22.57640 -86.50218 24091 ft 440 kts 11°
2026-04-28 22:53 22.60635 -86.49522 24304 ft 441 kts 11°
2026-04-28 22:53 22.63635 -86.48823 24487 ft 442 kts 11°
2026-04-28 22:54 22.66651 -86.48120 24662 ft 444 kts 11°
2026-04-28 22:54 22.69669 -86.47417 24845 ft 445 kts 11°
2026-04-28 22:54 22.71676 -86.46949 24967 ft 445 kts 11°
2026-04-28 22:54 22.75735 -86.46003 25211 ft 447 kts 11°
2026-04-28 22:55 22.78736 -86.45303 25384 ft 448 kts 11°
2026-04-28 22:55 22.81787 -86.44592 25560 ft 449 kts 11°
2026-04-28 22:55 22.84844 -86.43879 25730 ft 450 kts 11°
2026-04-28 22:55 22.87910 -86.43164 25900 ft 451 kts 11°
2026-04-28 22:56 22.90979 -86.42448 26060 ft 452 kts 11°
2026-04-28 22:56 22.94059 -86.41729 26230 ft 453 kts 11°
2026-04-28 22:56 22.97149 -86.41007 26391 ft 454 kts 11°
2026-04-28 22:56 23.00238 -86.40284 26561 ft 455 kts 11°
2026-04-28 22:57 23.03329 -86.39561 26791 ft 454 kts 10°
2026-04-28 22:57 23.06416 -86.38838 27060 ft 453 kts 10°
2026-04-28 22:57 23.09450 -86.38127 27331 ft 451 kts 10°
2026-04-28 22:57 23.12517 -86.37409 27588 ft 451 kts 10°
2026-04-28 22:58 23.15583 -86.36690 27828 ft 450 kts 10°
2026-04-28 22:58 23.18637 -86.35974 28092 ft 449 kts 10°
2026-04-28 22:58 23.21692 -86.35257 28379 ft 448 kts 10°
2026-04-28 22:58 23.24738 -86.34542 28660 ft 447 kts 10°
2026-04-28 22:59 23.27775 -86.33829 28937 ft 447 kts 10°
2026-04-28 22:59 23.30775 -86.33125 29212 ft 446 kts
2026-04-28 22:59 23.33798 -86.32415 29509 ft 445 kts
2026-04-28 22:59 23.36824 -86.31704 29794 ft 444 kts
2026-04-28 23:00 23.39840 -86.30994 30098 ft 443 kts
2026-04-28 23:00 23.42849 -86.30286 30364 ft 442 kts
2026-04-28 23:00 23.45851 -86.29580 30602 ft 441 kts
2026-04-28 23:00 23.48856 -86.28872 30821 ft 441 kts
2026-04-28 23:01 23.51854 -86.28166 31050 ft 441 kts
2026-04-28 23:01 23.54853 -86.27459 31300 ft 440 kts
2026-04-28 23:01 23.57842 -86.26754 31550 ft 439 kts
2026-04-28 23:01 23.60791 -86.26058 31773 ft 439 kts
2026-04-28 23:02 23.63775 -86.25354 31981 ft 439 kts
2026-04-28 23:02 23.66761 -86.24648 32218 ft 439 kts
2026-04-28 23:02 23.69747 -86.23943 32455 ft 438 kts
2026-04-28 23:02 23.72724 -86.23239 32684 ft 438 kts
2026-04-28 23:03 23.75703 -86.22534 32899 ft 438 kts
2026-04-28 23:03 23.78681 -86.21830 33112 ft 438 kts
2026-04-28 23:03 23.81659 -86.21125 33341 ft 437 kts
2026-04-28 23:03 23.84630 -86.20421 33547 ft 437 kts
2026-04-28 23:04 23.86602 -86.19954 33697 ft 437 kts
2026-04-28 23:04 23.93513 -86.18315 34126 ft 438 kts
2026-04-28 23:04 23.96485 -86.17609 34305 ft 437 kts
2026-04-28 23:05 23.99455 -86.16904 34514 ft 436 kts
2026-04-28 23:05 24.02407 -86.16162 34722 ft 436 kts 13°
2026-04-28 23:05 24.05281 -86.15065 34869 ft 440 kts 20°
2026-04-28 23:05 24.08011 -86.13516 35018 ft 443 kts 25°
2026-04-28 23:06 24.13343 -86.10170 35065 ft 446 kts 26°
2026-04-28 23:06 24.18702 -86.06794 35073 ft 444 kts 25°
2026-04-28 23:07 24.24062 -86.03451 35073 ft 443 kts 25°
2026-04-28 23:07 24.28513 -86.00688 35076 ft 442 kts 25°
2026-04-28 23:08 24.34728 -85.96832 35074 ft 441 kts 25°
2026-04-28 23:08 24.40068 -85.93515 35076 ft 441 kts 25°
2026-04-28 23:09 24.44508 -85.90754 35078 ft 441 kts 25°
2026-04-28 23:09 24.49846 -85.87431 35077 ft 441 kts 25°
2026-04-28 23:10 24.55194 -85.84098 35081 ft 442 kts 25°
2026-04-28 23:10 24.60546 -85.80760 35076 ft 443 kts 25°
2026-04-28 23:11 24.65868 -85.77437 35077 ft 443 kts 25°
2026-04-28 23:11 24.71237 -85.74081 35077 ft 444 kts 25°
2026-04-28 23:12 24.76613 -85.70718 35080 ft 445 kts 25°
2026-04-28 23:12 24.81994 -85.67347 35082 ft 445 kts 25°
2026-04-28 23:13 24.87379 -85.63971 35080 ft 446 kts 25°
2026-04-28 23:13 24.92730 -85.60613 35085 ft 446 kts 25°
2026-04-28 23:14 24.98117 -85.57228 35083 ft 446 kts 25°
2026-04-28 23:14 25.03505 -85.53839 35081 ft 446 kts 25°
2026-04-28 23:15 25.08895 -85.50446 35078 ft 446 kts 25°
2026-04-28 23:15 25.14282 -85.47048 35084 ft 446 kts 25°
2026-04-28 23:16 25.20539 -85.43092 35088 ft 446 kts 25°
2026-04-28 23:16 25.25017 -85.40257 35087 ft 446 kts 25°
2026-04-28 23:17 25.30399 -85.36849 35085 ft 446 kts 25°
2026-04-28 23:17 25.36102 -85.34400 35088 ft 437 kts
2026-04-28 23:18 25.42044 -85.33585 35091 ft 433 kts
2026-04-28 23:18 25.48050 -85.33031 35092 ft 433 kts
2026-04-28 23:19 25.54061 -85.32448 35093 ft 434 kts
2026-04-28 23:19 25.60080 -85.31836 35094 ft 435 kts
2026-04-28 23:20 25.66105 -85.31215 35094 ft 435 kts
2026-04-28 23:20 25.72089 -85.30597 35094 ft 435 kts
2026-04-28 23:21 25.78125 -85.29973 35097 ft 435 kts